Location: ??????
(41.3164°N, 22.6615°E)
Time: 09:34:58
(UTC+00:00)

Landsat 5 - Pass Details

Date: 16 October 2021
Orbit: 528 x 652 km, 98.2° (Epoch: 02 December)

Event Time Altitude Azimuth Distance (km) Brightness Sun altitude
Rises 16:11:35 0° 20° (NNE) 2,880 6.7 -5.4°
Reaches altitude 10° 16:13:50 10° 27° (NNE) 1,990 5.8 -5.8°
Maximum altitude 16:18:00 44° 100° (E) 877 3.9 -6.6°
Drops below altitude 10° 16:22:14 10° 172° (S) 2,031 6.2 -7.4°
Sets 16:24:32 0° 179° (S) 2,946 7.1 -7.8°
